Lincoln, NE

5:55 AM CST on November 13, 2019 (GMT -0600)
Lincoln Municipal

Weather History for KLNK - August, 2019

Change the Weather History Date:

Tuesday, August 27, 2019

  Actual Average Record
Temperature  
Mean Temperature 67 °F 73 °F  
Max Temperature 76 °F 85 °F 104 °F (1955)
Min Temperature 58 °F 62 °F 47 °F (1906)
Degree Days  
Heating Degree Days 0 0  
Month to date heating degree days 0 0  
Since 1 June heating degree days 6 17  
Since 1 July heating degree days 0 1  
Cooling Degree Days 2 9  
Month to date cooling degree days 281 292  
Year to date cooling degree days 1027 1003  
Since 1 June cooling degree days 955 924  
Growing Degree Days 16 (Base 50)    
Moisture  
Dew Point 54 °F    
Average Humidity 65    
Maximum Humidity 86    
Minimum Humidity 43    
Precipitation  
Precipitation 0.00 in 0.11 in 1.34 in (1998)
Month to date precipitation 2.45 3.02  
Year to date precipitation 24.32 21.11  
Snow  
Snow 0.00 in 0.00 in 0.00 in (2006)
Month to date snowfall 0.0 0.0  
Since 1 June snowfall 0.0 0.0  
Since 1 July snowfall 0.0 0.0  
Snow Depth 0.00 in    
Sea Level Pressure  
Sea Level Pressure 30.02 in    
Wind  
Wind Speed 7 mph (West)    
Max Wind Speed 18 mph    
Max Gust Speed 23 mph    
Visibility 10 miles    
Events      
T = Trace of Precipitation, MM = Missing Value Source: NWS Daily Summary

Daily Weather History Graph

Daily Weather History Graph

Search for Another Location

Airport or City:

Astronomy

Aug. 27, 2019 Rise Set
Actual Time 6:48 AM CDT 8:07 PM CDT
Civil Twilight 6:20 AM CDT 8:36 PM CDT
Nautical Twilight 5:46 AM CDT 9:10 PM CDT
Astronomical Twilight 5:10 AM CDT 9:46 PM CDT
Moon 3:13 AM CDT (8/27) 6:30 PM CDT (8/27)
Length of Visible Light 14h 15m
Length of Day
13h 18m
Waning Crescent, 11% of the Moon is Illuminated
Aug 27
Waning Crescent
Aug 30
New
Sep 5
First Quarter
Sep 13
Full
Sep 21
Last Quarter

Hourly Weather History & Observations

Time (CDT) Temp. Dew Point Humidity Pressure Visibility Wind Dir Wind Speed Gust Speed Precip Events Conditions
12:54 AM 61.0 °F 55.0 °F 81% 29.94 in 10.0 mi Calm Calm - N/A   Clear
1:54 AM 63.0 °F 55.0 °F 75% 29.95 in 10.0 mi West 3.5 mph - N/A   Clear
2:54 AM 61.0 °F 55.0 °F 81% 29.95 in 10.0 mi West 4.6 mph - N/A   Clear
3:54 AM 60.1 °F 54.0 °F 80% 29.96 in 10.0 mi Calm Calm - N/A   Clear
4:54 AM 59.0 °F 54.0 °F 83% 29.96 in 10.0 mi West 3.5 mph - N/A   Clear
5:54 AM 57.9 °F 53.1 °F 84% 29.97 in 10.0 mi WNW 4.6 mph - N/A   Clear
6:54 AM 57.9 °F 53.1 °F 84% 29.99 in 10.0 mi West 4.6 mph - N/A   Clear
7:48 AM 60.8 °F 53.6 °F 77% 30.03 in 2.0 mi Calm Calm - N/A   Haze
7:54 AM 61.0 °F 53.1 °F 75% 30.02 in 10.0 mi Calm Calm - N/A   Clear
8:03 AM 61.0 °F 54.0 °F 78% 30.04 in 10.0 mi NW 3.5 mph - N/A   Clear
8:54 AM 64.9 °F 54.0 °F 68% 30.03 in 10.0 mi NNW 11.5 mph - N/A   Clear
9:54 AM 69.1 °F 53.1 °F 57% 30.04 in 10.0 mi NW 11.5 mph - N/A   Clear
10:54 AM 72.0 °F 51.1 °F 48% 30.04 in 6.0 mi NNW 16.1 mph - N/A   Clear
11:54 AM 75.0 °F 52.0 °F 44% 30.05 in 10.0 mi NW 16.1 mph - N/A   Clear
12:54 PM 72.0 °F 52.0 °F 49% 30.06 in 10.0 mi NW 11.5 mph - N/A   Partly Cloudy
1:54 PM 71.1 °F 53.1 °F 53% 30.07 in 10.0 mi West 9.2 mph - N/A   Overcast
2:54 PM 72.0 °F 55.0 °F 55% 30.07 in 10.0 mi West 12.7 mph - N/A   Overcast
3:54 PM 72.0 °F 55.0 °F 55% 30.06 in 10.0 mi WNW 9.2 mph - N/A   Overcast
4:54 PM 73.0 °F 54.0 °F 51% 30.05 in 10.0 mi WSW 11.5 mph - N/A   Scattered Clouds
5:54 PM 73.9 °F 55.0 °F 52% 30.05 in 10.0 mi West 11.5 mph 18.4 mph N/A   Partly Cloudy
6:54 PM 72.0 °F 54.0 °F 53% 30.04 in 10.0 mi West 6.9 mph - N/A   Clear
7:54 PM 70.0 °F 55.9 °F 61% 30.04 in 10.0 mi WSW 6.9 mph - N/A   Clear
8:54 PM 66.0 °F 57.0 °F 73% 30.05 in 10.0 mi WSW 4.6 mph - N/A   Clear
9:54 PM 64.9 °F 55.9 °F 73% 30.06 in 10.0 mi WSW 3.5 mph - N/A   Clear
10:54 PM 62.1 °F 55.0 °F 78% 30.06 in 10.0 mi WSW 3.5 mph - N/A   Clear
11:54 PM 61.0 °F 55.9 °F 83% 30.06 in 10.0 mi Calm Calm - N/A   Clear